User: anonymous   Login
Location: Oshawa
(43.9000°N, 78.8670°W)
Time: 00:16:49
(UTC-05:00)
Language:

Envisat - Orbit

View from above orbital plane
View from above orbital plane
View from above satellite
View from above satellite

Ground track
Ground track

The orbit data is extracted from the following two-line orbital elements,

1 27386U 02009A   14329.74074855  .00000202  00000-0  81316-4 0  6686
2 27386 098.3648 030.9681 0000942 083.4213 276.7078 14.37757308666795
Epoch (UTC): 25 November 2014 17:46:40
Eccentricity: 0.0000942
inclination: 98.3648°
perigee height: 765 km
apogee height: 766 km
right ascension of ascending node: 30.9681°
argument of perigee: 83.4213°
revolutions per day: 14.37757308
mean anomaly at epoch: 276.7078°
orbit number at epoch: 66679

The dashed part of the orbit path shows where the satellite is in the earth's shadow,  

DLR